TimeMST,TemperatureF,Dew PointF,Humidity,Sea Level PressureIn,VisibilityMPH,Wind Direction,Wind SpeedMPH,Gust SpeedMPH,PrecipitationIn,Events,Conditions,WindDirDegrees,DateUTC
12:53 AM,25.0,21.9,88,30.15,10.0,NNW,4.6,-,N/A,,Mostly Cloudy,330,2012-11-17 07:53:00
1:53 AM,26.1,24.1,92,30.15,10.0,East,3.5,-,N/A,,Partly Cloudy,80,2012-11-17 08:53:00
2:53 AM,27.0,23.0,85,30.15,10.0,Calm,Calm,-,N/A,,Mostly Cloudy,0,2012-11-17 09:53:00
3:53 AM,21.0,18.0,88,30.16,10.0,South,3.5,-,N/A,,Partly Cloudy,190,2012-11-17 10:53:00
4:53 AM,19.9,18.0,92,30.17,10.0,North,3.5,-,N/A,,Partly Cloudy,350,2012-11-17 11:53:00
5:53 AM,19.9,18.0,92,30.18,10.0,NW,5.8,-,N/A,,Clear,320,2012-11-17 12:53:00
6:53 AM,18.0,15.1,88,30.19,9.0,Calm,Calm,-,N/A,,Clear,0,2012-11-17 13:53:00
7:53 AM,19.9,19.0,96,30.20,6.0,SE,3.5,-,N/A,,Clear,130,2012-11-17 14:53:00
8:53 AM,24.1,19.9,84,30.21,9.0,Calm,Calm,-,N/A,,Clear,0,2012-11-17 15:53:00
9:53 AM,28.0,24.1,85,30.20,10.0,Calm,Calm,-,N/A,,Clear,0,2012-11-17 16:53:00
10:53 AM,34.0,26.1,73,30.17,10.0,Calm,Calm,-,N/A,,Clear,0,2012-11-17 17:53:00
11:53 AM,37.9,28.0,68,30.12,10.0,SE,3.5,-,N/A,,Clear,130,2012-11-17 18:53:00
12:53 PM,41.0,28.0,60,30.09,10.0,SSW,3.5,-,N/A,,Clear,210,2012-11-17 19:53:00
1:53 PM,46.0,28.9,51,30.06,10.0,Calm,Calm,-,N/A,,Clear,0,2012-11-17 20:53:00
2:53 PM,46.9,30.0,52,30.04,10.0,Calm,Calm,-,N/A,,Clear,0,2012-11-17 21:53:00
3:53 PM,43.0,30.0,60,30.05,10.0,SE,3.5,-,N/A,,Clear,140,2012-11-17 22:53:00
4:53 PM,39.9,30.9,70,30.04,10.0,SE,5.8,-,N/A,,Clear,130,2012-11-17 23:53:00
5:53 PM,39.0,30.9,73,30.03,10.0,East,4.6,-,N/A,,Clear,90,2012-11-18 00:53:00
6:53 PM,39.0,30.0,70,30.03,10.0,SE,3.5,-,N/A,,Clear,130,2012-11-18 01:53:00
7:53 PM,37.9,28.9,70,30.01,10.0,ESE,4.6,-,N/A,,Partly Cloudy,120,2012-11-18 02:53:00
8:53 PM,37.0,28.9,73,30.00,10.0,SE,4.6,-,N/A,,Partly Cloudy,140,2012-11-18 03:53:00
9:53 PM,37.0,28.9,73,29.97,10.0,Calm,Calm,-,N/A,,Scattered Clouds,0,2012-11-18 04:53:00
10:53 PM,37.0,28.9,73,29.94,10.0,SSW,3.5,-,N/A,,Clear,200,2012-11-18 05:53:00